Paris/de Gaulle Arpt, France

4:09 AM CET on December 09, 2016 (GMT +0100)
Charles de Gaulle

Weather History for LFPG - September, 2012

Change the Weather History Date:

Saturday, September 15, 2012

  Actual Average Record
Temperature  
Mean Temperature 60 °F -  
Max Temperature 69 °F 64 °F 77 °F (2000)
Min Temperature 51 °F 49 °F 44 °F (1996)
Degree Days  
Heating Degree Days 5    
Growing Degree Days 10 (Base 50)    
Moisture  
Dew Point 49 °F    
Average Humidity 68    
Maximum Humidity 94    
Minimum Humidity 40    
Precipitation  
Precipitation 0.00 in - - ()
Sea Level Pressure  
Sea Level Pressure 30.07 in    
Wind  
Wind Speed 5 mph ()    
Max Wind Speed 9 mph    
Max Gust Speed -    
Visibility 6.2 miles    
Events      
Averages and records for this station are not official NWS values.
T = Trace of Precipitation, MM = Missing Value Source: Averaged Metar Reports

Daily Weather History Graph

Daily Weather History Graph

Search for Another Location

Airport or City:

Trip Planner

Search our weather history database for the weather conditions in past years. The results will help you decide how hot, cold, wet, or windy it might be!

Date:

Astronomy

Sep. 15, 2012 Rise Set
Actual Time 7:26 AM CEST 8:02 PM CEST
Civil Twilight 6:54 AM CEST 8:34 PM CEST
Nautical Twilight 6:16 AM CEST 9:11 PM CEST
Astronomical Twilight 5:37 AM CEST 9:51 PM CEST
Moon 6:41 AM CEST (9/15) 7:20 PM CEST (9/15)
Length of Visible Light 13h 39m
Length of Day
12h 35m
Waning Crescent, 1% of the Moon is Illuminated
Sep 15
Waning Crescent
Sep 16
New
Sep 22
First Quarter
Sep 30
Full
Oct 8
Last Quarter

Hourly Weather History & Observations

Time (CEST) Temp. Dew Point Humidity Pressure Visibility Wind Dir Wind Speed Gust Speed Precip Events Conditions
12:00 AM 57.2 °F 51.8 °F 82% 30.04 in 6.2 mi WNW 8.1 mph - N/A   Scattered Clouds
12:30 AM 57.2 °F 50.0 °F 77% 30.04 in 6.2 mi West 9.2 mph - N/A   Scattered Clouds
1:00 AM 55.4 °F 50.0 °F 82% 30.04 in 6.2 mi WSW 5.8 mph - N/A   Scattered Clouds
1:30 AM 55.4 °F 51.8 °F 88% 30.04 in 6.2 mi WSW 5.8 mph - N/A   Scattered Clouds
2:00 AM 55.4 °F 51.8 °F 88% 30.04 in 6.2 mi West 5.8 mph - N/A   Mostly Cloudy
2:30 AM 55.4 °F 51.8 °F 88% 30.04 in - West 5.8 mph - N/A   Clear
3:00 AM 55.4 °F 51.8 °F 88% 30.04 in 6.2 mi West 6.9 mph - N/A   Mostly Cloudy
3:30 AM 55.4 °F 51.8 °F 88% 30.04 in - West 6.9 mph - N/A   Clear
4:00 AM 55.4 °F 51.8 °F 88% 30.06 in - WNW 8.1 mph - N/A   Clear
4:30 AM 55.4 °F 51.8 °F 88% 30.06 in - West 5.8 mph - N/A   Clear
5:00 AM 55.4 °F 51.8 °F 88% 30.06 in - WNW 5.8 mph - N/A   Clear
5:30 AM 53.6 °F 51.8 °F 94% 30.06 in - WNW 6.9 mph - N/A   Clear
6:00 AM 53.6 °F 50.0 °F 88% 30.06 in - West 4.6 mph - N/A   Clear
6:30 AM 53.6 °F 50.0 °F 88% 30.06 in - West 4.6 mph - N/A   Clear
7:00 AM 53.6 °F 50.0 °F 88% 30.06 in - West 5.8 mph - N/A   Clear
7:30 AM 51.8 °F 50.0 °F 94% 30.06 in - WNW 5.8 mph - N/A   Clear
8:00 AM 53.6 °F 50.0 °F 88% 30.09 in 6.2 mi West 3.5 mph - N/A   Mostly Cloudy
8:30 AM 53.6 °F 51.8 °F 94% 30.09 in 6.2 mi West 4.6 mph - N/A   Mostly Cloudy
9:00 AM 53.6 °F 51.8 °F 94% 30.09 in 6.2 mi Variable 2.3 mph - N/A   Mostly Cloudy
9:30 AM 55.4 °F 53.6 °F 94% 30.09 in 6.2 mi NW 3.5 mph - N/A   Scattered Clouds
10:00 AM 57.2 °F 51.8 °F 82% 30.09 in - Variable 2.3 mph - N/A   Clear
10:30 AM 60.8 °F 51.8 °F 72% 30.09 in 6.2 mi North 3.5 mph - N/A   Partly Cloudy
11:00 AM 62.6 °F 48.2 °F 59% 30.12 in 6.2 mi Variable 2.3 mph - N/A   Partly Cloudy
11:30 AM 64.4 °F 46.4 °F 52% 30.12 in 6.2 mi Variable 3.5 mph - N/A   Scattered Clouds
12:00 PM 62.6 °F 46.4 °F 55% 30.12 in 6.2 mi Variable 3.5 mph - N/A   Scattered Clouds
12:30 PM 64.4 °F 48.2 °F 56% 30.09 in 6.2 mi Variable 2.3 mph - N/A   Scattered Clouds
1:00 PM 64.4 °F 48.2 °F 56% 30.09 in 6.2 mi WNW 4.6 mph - N/A   Scattered Clouds
1:30 PM 68.0 °F 46.4 °F 46% 30.09 in 6.2 mi NNW 5.8 mph - N/A   Scattered Clouds
2:00 PM 66.2 °F 48.2 °F 52% 30.09 in 6.2 mi Variable 1.2 mph - N/A   Scattered Clouds
2:30 PM 68.0 °F 48.2 °F 49% 30.09 in 6.2 mi NNW 3.5 mph - N/A   Scattered Clouds
3:00 PM 68.0 °F 46.4 °F 46% 30.09 in 6.2 mi Variable 3.5 mph - N/A   Scattered Clouds
3:30 PM 68.0 °F 46.4 °F 46% 30.09 in - WSW 4.6 mph - N/A   Clear
4:00 PM 69.8 °F 48.2 °F 46% 30.06 in - SE 4.6 mph - N/A   Clear
4:30 PM 69.8 °F 46.4 °F 43% 30.06 in - East 3.5 mph - N/A   Clear
5:00 PM 69.8 °F 46.4 °F 43% 30.06 in - Variable 2.3 mph - N/A   Clear
5:30 PM 69.8 °F 46.4 °F 43% 30.06 in - West 4.6 mph - N/A   Clear
6:00 PM 69.8 °F 46.4 °F 43% 30.04 in - Variable 2.3 mph - N/A   Clear
6:30 PM 69.8 °F 44.6 °F 40% 30.04 in - Variable 2.3 mph - N/A   Clear
7:00 PM 68.0 °F 46.4 °F 46% 30.06 in - North 3.5 mph - N/A   Clear
7:30 PM 68.0 °F 46.4 °F 46% 30.04 in - Variable 2.3 mph - N/A   Clear
8:00 PM 66.2 °F 48.2 °F 52% 30.06 in - NE 3.5 mph - N/A   Clear
8:30 PM 66.2 °F 48.2 °F 52% 30.06 in - East 3.5 mph - N/A   Clear
9:00 PM 64.4 °F 48.2 °F 56% 30.06 in - East 3.5 mph - N/A   Clear
9:30 PM 64.4 °F 48.2 °F 56% 30.06 in - ESE 2.3 mph - N/A   Clear
10:00 PM 60.8 °F 48.2 °F 63% 30.06 in - Variable 2.3 mph - N/A   Clear
10:30 PM 60.8 °F 48.2 °F 63% 30.06 in - East 2.3 mph - N/A   Clear
11:00 PM 59.0 °F 48.2 °F 67% 30.06 in - SE 2.3 mph - N/A   Clear
11:30 PM 59.0 °F 48.2 °F 67% 30.06 in - Variable 2.3 mph - N/A   Clear